Content
SEND FEEDBACK

Daily
Averages
Monthly
Summary
United States of America

SOUTH LAKE TAHOE, CALIFORNIA


Home > North America > United States > California
Elevation: 6263 feet     Latitude: 38 53N     Longitude: 119 59W

WEATHER
 
SELECT A DAY
Number of Records: 174,516;   Date Range: 1/1/95 - 8/28/14
 
SHARE

PRINT THIS DATA

[ ← Previous Day ]
WEATHER ALMANAC - MARCH 12, 2013
[ Next Day → ]
[ °C ]   °F
Weather ElementAverageHighLow
Temperature41.6 °F62.1 °F (3:53 pm)25 °F (7:53 am)
Dewpoint24.6 °F30.9 °F (1:53 pm)18 °F (3:53 pm)
Humidity56.1 %81 % (5:53 am)18 % (3:53 pm)
Barometer30.23 in30.30 in (8:53 am)30.16 in (4:53 pm)
Wind Speed2.6 mph6.9 mph (5:53 pm)
Weather ElementAverage
Visibility10 mi
Wind DirectionNNE (28.1 °)

Weather ElementTotal
Precipitation---
Heating Degree Days21.5 (Base 65)
Averaged from 21 records on March 12, 2013
WEATHER CONDITIONS BREAKOUT
WIND DIRECTION BREAKOUT
WEATHER BY HOUR - MARCH 12, 2013
[ °C ]   °F
Local TimeTemperatureDewpointHumidityBarometerVisibilityWind DirectionWind SpeedGust SpeedPrecipitationEventsConditions
1:53 AM28.9 °F23.0 °F78 %30.24 in10.0 miCalmClear
2:53 AM28.9 °F23.0 °F78 %30.22 in10.0 miCalmClear
3:53 AM28.0 °F21.9 °F78 %30.20 in10.0 miCalmClear
4:53 AM28.0 °F21.0 °F75 %30.20 in10.0 miCalmClear
5:53 AM26.1 °F21.0 °F81 %30.22 in10.0 miSouth (180°)4.6 mphClear
6:53 AM26.1 °F19.9 °F78 %30.26 in10.0 miCalmClear
7:53 AM25.0 °F19.9 °F81 %30.28 in10.0 miCalmClear
8:53 AM28.9 °F23.0 °F78 %30.30 in10.0 miSouth (190°)3.5 mphClear
9:53 AM39.9 °F25.0 °F55 %30.27 in10.0 miCalmClear
10:53 AM48.9 °F25.0 °F39 %30.25 in10.0 miNNE (20°)5.8 mphClear
11:53 AM53.1 °F28.0 °F38 %30.23 in10.0 miNNE (30°)5.8 mphClear
12:53 PM55.0 °F27.0 °F34 %30.22 in10.0 miNE (40°)5.8 mphClear
1:53 PM55.0 °F30.9 °F40 %30.22 in10.0 miNorth (10°)5.8 mphClear
2:53 PM57.9 °F28.9 °F33 %30.19 in10.0 miNE (50°)5.8 mphClear
3:53 PM62.1 °F18.0 °F18 %30.17 in10.0 miNNE (30°)4.6 mphClear
4:53 PM62.1 °F23.0 °F22 %30.16 in10.0 miNNE (20°)5.8 mphClear
5:53 PM54.0 °F25.0 °F33 %30.20 in10.0 miNNE (20°)6.9 mphClear
6:53 PM46.9 °F30.0 °F52 %30.23 in10.0 miCalmClear
7:53 PM43.0 °F27.0 °F53 %30.27 in10.0 miCalmClear
9:53 PM39.0 °F28.0 °F65 %30.26 in10.0 miCalmClear
10:53 PM37.0 °F28.0 °F70 %30.26 in10.0 miCalmClear
Hourly data recorded from KTVL, located miles away from South Lake Tahoe, California







STORIES FROM OUR PARTNERS